Regional Weather Roundup
Issued by NWS

Home | Current Version | Previous Version | Text Only | Print | Product List | Glossary Off
Versions: 1 2 3 4 5 6 7 8 9 10 11 12 13 14 15 16 17 18 19 20 21 22 23 24 25 26 27 28 29 30 31 32 33 34 35 36 37 38 39 40 41 42 43 44 45 46 47 48 49 50

000
ASUS43 KOAX 211902
RWRNE

WEATHER ROUNDUP FOR NEBRASKA
NATIONAL WEATHER SERVICE OMAHA NE
200 PM CDT WED JUN 21 2017

NOTES: SATELLITE DATA IS BEING USED TO AUGMENT CLOUD COVER ABOVE
       12000 FEET.
       "FAIR" INDICATES FEW OR NO CLOUDS BELOW 12,000 FEET WITH NO
       SIGNIFICANT WEATHER AND/OR OBSTRUCTIONS TO VISIBILITY.

  * THESE STATIONS DO NOT REPORT WEATHER SUCH AS RAIN...SNOW OR FOG.

NEZ001>004-019>022-054>056-212000-
NEBRASKA PANHANDLE

CITY           SKY/WX    TMP DP  RH WIND       PRES   REMARKS
SCOTTSBLUFF    CLOUDY    91  48  22 NW12      29.89F
ALLIANCE       MOSUNNY   92  52  25 N15G21    29.88F
CHADRON        SUNNY     91  49  23 CALM      29.83F
GORDON         FAIR      88  56  33 NW8       29.85F
KIMBALL        SUNNY     93  44  18 NW15      29.97F
SIDNEY         SUNNY     96  43  16 N15       29.92F HX  92
$$

NEZ057>060-069>072-079>082-212000-
SOUTHWEST NEBRASKA

CITY           SKY/WX    TMP DP  RH WIND       PRES   REMARKS
NORTH PLATTE   SUNNY     99  57  24 VRB6      29.76F HX  98
IMPERIAL       SUNNY    103  38  10 NW12G20   29.80F HX  97
LEXINGTON      SUNNY     95  62  33 S10G16    29.76F HX  96
MCCOOK         SUNNY    100  58  24 VRB6      29.76F HX  99
OGALLALA       SUNNY    103  42  12 NW14G22   29.81F HX  98
$$

NEZ005>010-023>029-035>040-094-212000-
NORTH CENTRAL NEBRASKA

CITY           SKY/WX    TMP DP  RH WIND       PRES   REMARKS
VALENTINE      SUNNY     95  56  26 N6        29.76S HX  93
AINSWORTH      SUNNY     90  62  39 NE8       29.76S HX  90
BROKEN BOW     SUNNY     96  62  32 VRB7      29.75F HX  97
O`NEILL        SUNNY     86  64  48 S10G16    29.74F
ORD            SUNNY     93  61  34 S14       29.72F HX  93
THEDFORD         N/A     99  54  22 NW10G17   29.77F HX  96
$$

NEZ041-046>049-061>064-073>077-083>087-212000-
SOUTH CENTRAL NEBRASKA

CITY           SKY/WX    TMP DP  RH WIND       PRES   REMARKS
GRAND ISLAND   SUNNY     94  71  47 S18       29.74F HX 101
AURORA         SUNNY     92  67  43 S18G25    29.74F HX  95
HASTINGS       SUNNY     91  68  46 S13       29.78F HX  95
HEBRON         SUNNY     96  65  36 S18G28    29.78S HX  98
HOLDREGE       SUNNY     91  62  37 S15G21    29.77F HX  92
KEARNEY *      SUNNY     95  66  38 S15       29.76F HX  98
YORK           SUNNY     91  68  46 S21G26    29.75F HX  95
$$

NEZ011>018-030>034-042>045-212000-
NORTHEAST NEBRASKA

CITY           SKY/WX    TMP DP  RH WIND       PRES   REMARKS
NORFOLK        SUNNY     87  68  52 SE14G24   29.71F HX  90
ALBION         SUNNY     93  66  40 S12G17    29.73F HX  95
BLAIR          SUNNY     89  71  55 SE14      29.76F HX  94
FREMONT        SUNNY     90  67  45 S16       29.74F HX  93
TEKAMAH        SUNNY     90  67  46 SE23      29.74F HX  93
WAYNE          SUNNY     87  67  51 S17       29.73F HX  90
$$

NEZ050>053-065>068-078-088>093-212000-
SOUTHEAST NEBRASKA

CITY           SKY/WX    TMP DP  RH WIND       PRES   REMARKS
LINCOLN        SUNNY     96  68  39 SW20G25   29.76F HX 101
OMAHA EPPLEY   MOSUNNY   93  69  45 S21       29.74F HX  98
BEATRICE       SUNNY     93  64  38 S18G28    29.78F HX  94
FALLS CITY     CLOUDY    92  65  40 S13       29.81F HX  94
NEBRASKA CITY  MOSUNNY   91  64  39 SW21G26   29.79F HX  93
PLATTSMOUTH    SUNNY     92  64  40 S17G23    29.79F HX  93
$$

NEZ044-045-051>053-067-212000-
OMAHA AREA

CITY           SKY/WX    TMP DP  RH WIND       PRES   REMARKS
OMAHA EPPLEY   MOSUNNY   93  69  45 S21       29.74F HX  98
BLAIR          SUNNY     89  71  55 SE14      29.76F HX  94
FREMONT        SUNNY     90  67  45 S16       29.74F HX  93
MILLARD        MOSUNNY   93  72  49 S13G20    29.75F HX 101
OFFUTT AFB     SUNNY     92  68  45 S20G25    29.76F HX  96
PLATTSMOUTH    SUNNY     92  64  40 S17G23    29.79F HX  93
WAHOO          FAIR      92  65  40 S16G22    29.74F HX  95
$$




USA.gov is the U.S. government's official web portal to all federal, state and local government web resources and services.